星链-3089 (STARLINK-3089 )

导读 | 星芒AI

STARLINK-3089 是 SpaceX 星链计划中的一颗低轨通信卫星,属于第 30 批发射的星链卫星群。该卫星部署在近地轨道,旨在为全球用户提供高速互联网服务。作为星链网络的一部分,它通过与其他卫星协同工作,实现全球范围内的宽带连接,尤其服务于传统网络难以覆盖的偏远地区。STARLINK-3089 采用先进通信技术,具备高带宽和低延迟特性,有助于提升全球互联网接入的普及率与质量。

基本信息
目录编号:
49166
目录名称:
STARLINK-3089
国际标识:
2021-082AN
轨道中心:
EARTH
卫星名称:
星链-3089
卫星全名:
星链-3089 (STARLINK-3089 )
卫星状态:
在轨 (已飞行1508 天)
发射日期:
2021-09-14 UTC
国别 :
美国 (US)
星等 :
--
轨道信息
数据来源 国际轨道数据
星历时间: 2025-10-31T14:13:27+0800
7小时前
查看轨道信息
半长轴: 6952.672km
偏心率: 0.0002736
轨道倾角: 70.000°
近地点辐角 271.075°
升交点赤经 241.171°
平近点角 89.010°
近地点: 572.634km
远地点: 576.44km
周期: 96.158分钟
每日圈数: 14.975287
详细信息
固有亮度:
5
最大亮度:
2.5
卫星平台:
Starlink v1.5
覆盖范围:
全球
运营商:
太空探索技术公司
运营商所在国:
美国
制造商(研发单位):
太空探索技术公司
制造商所在国:
美国
使用方式:
暂无
卫星简介
星链(Starlink)计划是由太空探索技术公司(SpaceX)提出的一个巨型低轨卫星互联网星座项目,计划在2019年至2024年间在太空搭建由约1.2万颗卫星组成的“星链”网络,其中1584颗将部署在地球上空550千米处的近地轨道,并从2020年开始工作。该卫星仍在工作。
2D轨道图
3D轨道图
轨道高度分析图
轨道倾角分析图
轨道综合分析图
查看轨道综合分析图